loading
|
Showing default

OPS 6679 (VELA 8), 2766

Orbit data source: Space-Track

OPS 6679 (VELA 8), 2766 is a payload satellite owned by USAF SSD (US) in HEO that was launched on Fri, 28 Apr 1967 UTC via a TITAN IIIC launch vehicle from the Air Force Eastern Test Range (AFETR). Payloads include a variety of satellites, spacecraft, and rockets equipped with specific instruments for various scientific and technological missions. These include communications satellites like Starlink; space stations such as the ISS; scientific satellites like the Hubble; Earth observation satellites from companies like Planet Labs, Umbra, and HawkEye 360; GPS; miniature CubeSats for education and research; and military/defense satellites.

Loading next visibility...
Loading greatness...
OPS 6679 (VELA 8) details
Identifier
2766, 1967-040B
Orbit
HEO
Last TLE updatein 5 days
Origin
Flag of USUSAF SSD (US)
ManufacturerTRW
MissionDefense Early Warn
Bus & MotorVELA, BE-3
Mass~348 kg wet, 221 kg dry
Launch date (UTC)
1967-04-28 (57 years ago)
Launch vehicle
TITAN IIIC
Launch site
Air Force Eastern Test Range (AFETR)
Object type
Payload
Rocket body
Debris
Shape & HBRPoly, 1.42 m
Radar Cross Section2.036 m²

Expand to show TLE details & history

TLE from in 5 days
0 OPS 6679 (VELA 8)
1  2766U 67040B   24286.63552647 -.00000536  00000-0  00000+0 0  9992
2  2766  33.0652  17.7585 4610533  94.3205 359.2095  0.21249970 44926
Epoch: 2024-10-12T15:15Z
Definitive object data (Epoch: 2024-10-12T15:15:09.487Z)
Latitude33.12055°
Longitude-141.78312°
Altitude58,620.066 km
Speed2.984 km/s
True Right ascension07h 14m 46s
True Declination33° 06' 12"
Sunlit
Object was in daylight at TLE epoch
Predictive object data (real-time)
Latitude27.21437°
Longitude179.27383°
Altitude63,118.222 km
Speed2.848 km/s
Apparent Right ascension04h 23m 33s
Apparent Declination23° 19' 07"
Sunlit
Object is in daylight
Predictive observer data (real-time)
Local Sidereal Time12:30:40
Azimuth308.183° NW
Elevation-6.715°
Doppler factor1
Orbital elements
Apogee166,934.553 km
Perigee57,552.66 km
Semi-major axis118,621.744 km
Eccentricity0.4610533
Inclination33.0652°
RAAN17.7585°
Arg. of periapsis94.3205°
True anomaly357.58546°
Mean anomaly359.2095°
Eccentric anomaly358.53339°
Mean motion0.05312 °/min
BSTARUnknown
Period6776.51 mins
No data available

OPS 6679 (VELA 8) Visibility forecast

Observer location: 39.9160978°, -105.1181434

OPS 6679 (VELA 8) is not visible in the next 10 days
Span
Click to sort rows by Start time (UTC) header in descending order
Start Az.
Max El. time (UTC)
Max El. Az.
Max El.
End time (UTC)
End Az.